Weather in Luninets

Belarus     52°14′44″N   26°48′03″E
temp.,
°C
wind,
m/s
gust,
m/s
humid.,
%
clouds,
%
prec.,
mm/h
press.,
hPa
HPBL,
m
17 april, sat
sat1700:00+7ssw0194100 0.7 101451
03:00+7s1196100 1.5 101565
06:00+7n2395100 0.3 101658
09:00+9ene23825 0.8 1017352
12:00+12e556658 2.3 10171137
15:00+11e356276 3.4 10181220
18:00+11e466797 0.1 1018497
21:00+8ene1274100 0.1 101910
18 april, sun
sun1800:00+7wnw2276100 0.0 101811
03:00+7nw3582100 0.0 1018118
06:00+7nw4987100 0.2 1016221
09:00+8nw4895100 1.8 1016362
12:00+8ne598782 0.4 1017602
15:00+11ene676127 0.4 10181315
18:00+10ese56638 0.0 1018859
21:00+7ese117573 0.0 101910
19 april, mon
mon1900:00+6ne22855 0.0 101926
03:00+4ne35965 0.0 1019106
06:00+3ne359718 0.0 1019120
09:00+7ene458670 0.0 1019454
12:00+8ene567789 0.1 1019899
15:00+9ne4670100 0.1 1018849
18:00+9nne466582 0.0 1017793
21:00+7ne488442 0.1 1016379
20 april, tue
tue2000:00+6nne379294 0.0 1015213
03:00+7nne5991100 0.1 1014485
06:00+7nne51090100 0.1 1012555
09:00+6nne6989100 0.3 1012656
12:00+7nne5889100 0.1 1011579
15:00+8nne5783100 0.3 1009914
18:00+8n588093 0.1 1008782
21:00+6nnw5988100 0.1 1008631
21 april, wed
wed2100:00+6nw5986100 0.0 1007593
03:00+6wnw61187100 0.1 1007498
06:00+6wnw51187100 0.1 1007465
09:00+7wnw610715 0.1 10081022
12:00+10wnw796089 0.1 10091614
15:00+11w795489 0.6 10101719
18:00+11w695975 0.6 10121393
21:00+7wsw34785 0.6 101455